,,Stat5,,Stat1,,Stat2,,Stat3,,Stat4,,Wind1,,Wind1,
time,status,PA1M_AVG,status,PR1M_SUM,status,RH1M_AVG,status,SR1M_AVG,status,TA1M_AVG,status,W1dAve1m,status,W1sAve1m,
2000-04-11, 00:00:01,VALID,916.7,VALID,0,VALID,98.9156,VALID,-0.0509425,VALID,18.4595,VALID,185,VALID,0,
2000-04-11, 00:01:01,VALID,916.692,VALID,0,VALID,98.9219,VALID,-0.0679233,VALID,18.4598,VALID,185,VALID,0,
2000-04-11, 00:02:00,VALID,916.678,VALID,0,VALID,98.9499,VALID,-0.0509425,VALID,18.469,VALID,185,VALID,0,
2000-04-11, 00:03:00,VALID,916.685,VALID,0,VALID,98.9016,VALID,-0.0169808,VALID,18.4623,VALID,184,VALID,0,
2000-04-11, 00:04:00,VALID,916.664,VALID,0,VALID,98.9079,VALID,-0.0339617,VALID,18.4727,VALID,177,VALID,0,
2000-04-11, 00:05:00,VALID,916.644,VALID,0,VALID,98.8825,VALID,-0.0339617,VALID,18.4655,VALID,163,VALID,0,
2000-04-11, 00:06:00,VALID,916.638,VALID,0,VALID,98.8469,VALID,-0.0169808,VALID,18.4653,VALID,163,VALID,0,
2000-04-11, 00:07:00,VALID,916.61,VALID,0,VALID,98.7935,VALID,-0.0339617,VALID,18.4593,VALID,163,VALID,0,
2000-04-11, 00:08:01,VALID,916.601,VALID,0,VALID,98.8113,VALID,0,VALID,18.4655,VALID,163,VALID,0,
2000-04-11, 00:09:00,VALID,916.587,VALID,0,VALID,98.8024,VALID,-0.0509425,VALID,18.4459,VALID,163,VALID,0,
2000-04-11, 00:10:01,VALID,916.569,VALID,0,VALID,98.7693,VALID,-0.0169808,VALID,18.4528,VALID,164,VALID,0,
2000-04-11, 00:11:00,VALID,916.552,VALID,0,VALID,98.7617,VALID,0,VALID,18.4432,VALID,164,VALID,0,
2000-04-11, 00:12:00,VALID,916.546,VALID,0,VALID,98.7986,VALID,-0.0169808,VALID,18.4558,VALID,164,VALID,0,
2000-04-11, 00:13:01,VALID,916.544,VALID,0,VALID,98.7999,VALID,-0.0169808,VALID,18.4498,VALID,164,VALID,0,
2000-04-11, 00:14:00,VALID,916.532,VALID,0,VALID,98.7986,VALID,-0.0169808,VALID,18.4335,VALID,164,VALID,0,
2000-04-11, 00:15:00,VALID,916.503,VALID,0,VALID,98.7986,VALID,-0.0339617,VALID,18.4432,VALID,158,VALID,0,
2000-04-11, 00:16:00,VALID,916.482,VALID,0,VALID,98.8291,VALID,0,VALID,18.4395,VALID,156,VALID,0,
2000-04-11, 00:17:00,VALID,916.458,VALID,0,VALID,98.8736,VALID,0,VALID,18.4618,VALID,156,VALID,0,
2000-04-11, 00:18:00,VALID,916.433,VALID,0,VALID,98.8978,VALID,0,VALID,18.4683,VALID,242,VALID,0,
2000-04-11, 00:19:00,VALID,916.453,VALID,0,VALID,98.9258,VALID,0,VALID,18.4683,VALID,304,VALID,0.504123,
2000-04-11, 00:20:00,VALID,916.445,VALID,0,VALID,98.9677,VALID,0.0169808,VALID,18.4782,VALID,280,VALID,0.240184,
2000-04-11, 00:21:00,VALID,916.406,VALID,0,VALID,98.9995,VALID,0,VALID,18.4685,VALID,267,VALID,0.0232264,
2000-04-11, 00:22:00,VALID,916.36,VALID,0,VALID,98.9995,VALID,-0.0169808,VALID,18.469,VALID,149,VALID,0.234821,
2000-04-11, 00:23:00,VALID,916.314,VALID,0,VALID,99.016,VALID,0.0169808,VALID,18.4494,VALID,126,VALID,0.183594,
2000-04-11, 00:24:00,VALID,916.299,VALID,0,VALID,99.0173,VALID,-0.0169808,VALID,18.4432,VALID,123,VALID,0,
2000-04-11, 00:25:01,VALID,916.282,VALID,0,VALID,99.0249,VALID,0,VALID,18.4233,VALID,148,VALID,0,
2000-04-11, 00:26:00,VALID,916.254,VALID,0,VALID,99.0262,VALID,-0.0169808,VALID,18.4104,VALID,193,VALID,0.00971284,
2000-04-11, 00:27:00,VALID,916.188,VALID,0,VALID,99.0427,VALID,0,VALID,18.4173,VALID,160,VALID,0.326786,
2000-04-11, 00:28:01,VALID,916.172,VALID,0,VALID,99.0211,VALID,-0.0169808,VALID,18.3853,VALID,156,VALID,0.0240385,
2000-04-11, 00:29:00,VALID,916.172,VALID,0,VALID,99.0402,VALID,-0.0169808,VALID,18.3788,VALID,156,VALID,0,
2000-04-11, 00:30:00,VALID,916.141,VALID,0,VALID,99.0516,VALID,-0.0169808,VALID,18.3719,VALID,156,VALID,0,
2000-04-11, 00:31:00,VALID,916.112,VALID,0,VALID,99.058,VALID,-0.0339617,VALID,18.359,VALID,156,VALID,0,
2000-04-11, 00:32:01,VALID,916.102,VALID,0,VALID,99.0694,VALID,-0.0509425,VALID,18.3596,VALID,156,VALID,0,
2000-04-11, 00:33:01,VALID,916.079,VALID,0,VALID,99.086,VALID,-0.0169808,VALID,18.3629,VALID,156,VALID,0,
2000-04-11, 00:34:01,VALID,916.049,VALID,0,VALID,99.1063,VALID,-0.0339617,VALID,18.3562,VALID,156,VALID,0.0221354,
2000-04-11, 00:35:00,VALID,916.02,VALID,0,VALID,99.1216,VALID,-0.0339617,VALID,18.356,VALID,154,VALID,0.0594952,
2000-04-11, 00:36:00,VALID,915.982,VALID,0,VALID,99.1445,VALID,-0.0169808,VALID,18.3624,VALID,153,VALID,0.0143581,
2000-04-11, 00:37:01,VALID,915.975,VALID,0,VALID,99.1559,VALID,-0.0169808,VALID,18.3788,VALID,103,VALID,0.311161,
2000-04-11, 00:38:01,VALID,915.953,VALID,0,VALID,99.1521,VALID,-0.0169808,VALID,18.3654,VALID,98,VALID,0.205798,
2000-04-11, 00:39:00,VALID,915.934,VALID,0,VALID,99.1674,VALID,-0.0169808,VALID,18.3788,VALID,98,VALID,0.167863,
2000-04-11, 00:40:01,VALID,915.894,VALID,0,VALID,99.1788,VALID,-0.0339617,VALID,18.3716,VALID,98,VALID,0.0672286,
2000-04-11, 00:41:01,VALID,915.878,VALID,0,VALID,99.1763,VALID,-0.0509425,VALID,18.3786,VALID,98,VALID,0.216216,
2000-04-11, 00:42:00,VALID,915.858,VALID,0,VALID,99.1902,VALID,-0.0679233,VALID,18.3751,VALID,97,VALID,0.0267857,
2000-04-11, 00:43:01,VALID,915.831,VALID,0,VALID,99.1801,VALID,0,VALID,18.3753,VALID,98,VALID,0.0466747,
2000-04-11, 00:44:01,VALID,915.817,VALID,0,VALID,99.1902,VALID,-0.0679233,VALID,18.3813,VALID,98,VALID,0.120265,
2000-04-11, 00:45:01,VALID,915.794,VALID,0,VALID,99.1991,VALID,-0.0339617,VALID,18.3912,VALID,308,VALID,0.419807,
2000-04-11, 00:46:00,VALID,915.754,VALID,0,VALID,99.2233,VALID,-0.0339617,VALID,18.4175,VALID,304,VALID,0.201225,
2000-04-11, 00:47:00,VALID,915.721,VALID,0,VALID,99.2449,VALID,-0.0679233,VALID,18.4111,VALID,304,VALID,0.28484,
2000-04-11, 00:48:01,VALID,915.711,VALID,0,VALID,99.264,VALID,-0.0169808,VALID,18.4146,VALID,304,VALID,0.0223818,
2000-04-11, 00:49:01,VALID,915.7,VALID,0,VALID,99.2665,VALID,-0.0509425,VALID,18.4178,VALID,300,VALID,0,
2000-04-11, 00:50:01,VALID,915.698,VALID,0,VALID,99.2487,VALID,-0.0169808,VALID,18.4175,VALID,300,VALID,0,
2000-04-11, 00:51:01,VALID,915.684,VALID,0,VALID,99.2462,VALID,-0.0169808,VALID,18.424,VALID,300,VALID,0,
2000-04-11, 00:52:01,VALID,915.683,VALID,0,VALID,99.2589,VALID,-0.0339617,VALID,18.4365,VALID,300,VALID,0,
2000-04-11, 00:53:01,VALID,915.663,VALID,0,VALID,99.2169,VALID,-0.0169808,VALID,18.4208,VALID,300,VALID,0,
2000-04-11, 00:54:01,VALID,915.66,VALID,0,VALID,99.203,VALID,0,VALID,18.4307,VALID,300,VALID,0,
2000-04-11, 00:55:01,VALID,915.661,VALID,0,VALID,99.1864,VALID,-0.0169808,VALID,18.4238,VALID,314,VALID,0.412829,
2000-04-11, 00:56:01,VALID,915.638,VALID,0,VALID,99.1483,VALID,0,VALID,18.4235,VALID,316,VALID,0.591639,
2000-04-11, 00:57:01,VALID,915.634,VALID,0,VALID,99.1318,VALID,0,VALID,18.4362,VALID,315,VALID,0.614732,
2000-04-11, 00:58:01,VALID,915.621,VALID,0,VALID,99.1076,VALID,0,VALID,18.4531,VALID,321,VALID,0.258013,
2000-04-11, 00:59:01,VALID,915.622,VALID,0,VALID,99.1038,VALID,0,VALID,18.4464,VALID,316,VALID,0.0421402,
2000-04-11, 01:00:01,VALID,915.603,VALID,0,VALID,99.105,VALID,0.0169808,VALID,18.4494,VALID,73,VALID,0.482307,
2000-04-11, 01:01:01,VALID,915.566,VALID,0,VALID,99.0593,VALID,0,VALID,18.4432,VALID,131,VALID,0.471706,
2000-04-11, 01:02:01,VALID,915.546,VALID,0,VALID,99.0046,VALID,-0.0169808,VALID,18.4111,VALID,134,VALID,0.00570101,
2000-04-11, 01:03:01,VALID,915.518,VALID,0,VALID,98.9677,VALID,-0.0169808,VALID,18.382,VALID,134,VALID,0,
2000-04-11, 01:04:01,VALID,915.5,VALID,0,VALID,98.9537,VALID,-0.0339617,VALID,18.3758,VALID,134,VALID,0.046875,
2000-04-11, 01:05:01,VALID,915.467,VALID,0,VALID,98.9703,VALID,0,VALID,18.3689,VALID,125,VALID,0.0394631,
2000-04-11, 01:06:01,VALID,915.455,VALID,0,VALID,98.9931,VALID,0,VALID,18.3793,VALID,125,VALID,0,
2000-04-11, 01:07:01,VALID,915.429,VALID,0,VALID,98.8851,VALID,-0.0339617,VALID,18.35,VALID,156,VALID,0,
2000-04-11, 01:08:00,VALID,915.393,VALID,0,VALID,98.81,VALID,0,VALID,18.2978,VALID,189,VALID,0,
2000-04-11, 01:09:00,VALID,915.374,VALID,0,VALID,98.8494,VALID,-0.0169808,VALID,18.2854,VALID,202,VALID,0,
2000-04-11, 01:10:00,VALID,915.372,VALID,0,VALID,98.8685,VALID,-0.0339617,VALID,18.2658,VALID,198,VALID,0,
2000-04-11, 01:11:00,VALID,915.344,VALID,0,VALID,98.8088,VALID,0.0169808,VALID,18.2335,VALID,170,VALID,0.142736,
2000-04-11, 01:12:00,VALID,915.343,VALID,0,VALID,98.8749,VALID,-0.0509425,VALID,18.2173,VALID,167,VALID,0.0957589,
2000-04-11, 01:13:00,VALID,915.322,VALID,0,VALID,98.8736,VALID,-0.0169808,VALID,18.2046,VALID,166,VALID,0,
2000-04-11, 01:14:00,VALID,915.311,VALID,0,VALID,98.8278,VALID,-0.0339617,VALID,18.1823,VALID,177,VALID,0.379498,
2000-04-11, 01:15:00,VALID,915.3,VALID,0,VALID,98.852,VALID,-0.0339617,VALID,18.1596,VALID,181,VALID,0.609375,
2000-04-11, 01:16:00,VALID,915.281,VALID,0,VALID,98.9359,VALID,0,VALID,18.156,VALID,181,VALID,0.448057,
2000-04-11, 01:17:00,VALID,915.264,VALID,0,VALID,98.9779,VALID,-0.0169808,VALID,18.1592,VALID,181,VALID,0.122889,
2000-04-11, 01:18:00,VALID,915.25,VALID,0,VALID,99.002,VALID,-0.0169808,VALID,18.1622,VALID,181,VALID,0,
2000-04-11, 01:19:00,VALID,915.244,VALID,0,VALID,99.0262,VALID,0,VALID,18.1853,VALID,181,VALID,0,
2000-04-11, 01:20:00,VALID,915.213,VALID,0,VALID,99.016,VALID,-0.0339617,VALID,18.1913,VALID,194,VALID,0.0556891,
2000-04-11, 01:21:00,VALID,915.213,VALID,0,VALID,99.016,VALID,-0.0509425,VALID,18.1982,VALID,222,VALID,0.163218,
2000-04-11, 01:22:00,VALID,915.189,VALID,0,VALID,98.9779,VALID,-0.0169808,VALID,18.1853,VALID,241,VALID,0.205134,
2000-04-11, 01:23:00,VALID,915.189,VALID,0,VALID,98.955,VALID,0,VALID,18.1654,VALID,268,VALID,0.164679,
2000-04-11, 01:24:00,VALID,915.174,VALID,0,VALID,98.927,VALID,0,VALID,18.1624,VALID,246,VALID,0.0863598,
2000-04-11, 01:25:00,VALID,915.178,VALID,0,VALID,98.9118,VALID,-0.0169808,VALID,18.1661,VALID,243,VALID,0.170847,
2000-04-11, 01:26:00,VALID,915.18,VALID,0,VALID,98.913,VALID,-0.0339617,VALID,18.1631,VALID,172,VALID,0.0743243,
2000-04-11, 01:27:00,VALID,915.184,VALID,0,VALID,98.8634,VALID,-0.0169808,VALID,18.1398,VALID,196,VALID,0.0370536,
2000-04-11, 01:28:00,VALID,915.202,VALID,0,VALID,98.88,VALID,-0.0169808,VALID,18.1269,VALID,247,VALID,0,
2000-04-11, 01:29:00,VALID,915.196,VALID,0,VALID,98.899,VALID,-0.0339617,VALID,18.1435,VALID,304,VALID,0,
2000-04-11, 01:30:00,VALID,915.181,VALID,0,VALID,98.9156,VALID,-0.0509425,VALID,18.1435,VALID,299,VALID,0,
2000-04-11, 01:31:00,VALID,915.164,VALID,0,VALID,98.9448,VALID,-0.0339617,VALID,18.153,VALID,299,VALID,0,
2000-04-11, 01:32:00,VALID,915.175,VALID,0,VALID,98.9753,VALID,0,VALID,18.1721,VALID,44,VALID,0,
2000-04-11, 01:33:00,VALID,915.17,VALID,0,VALID,98.983,VALID,-0.0169808,VALID,18.1753,VALID,108,VALID,0,
2000-04-11, 01:34:00,VALID,915.162,VALID,0,VALID,98.997,VALID,0,VALID,18.1753,VALID,111,VALID,0,
2000-04-11, 01:35:00,VALID,915.166,VALID,0,VALID,98.9486,VALID,0,VALID,18.1629,VALID,112,VALID,0,
2000-04-11, 01:36:00,VALID,915.166,VALID,0.2,VALID,98.9245,VALID,0,VALID,18.1403,VALID,112,VALID,0.291807,
2000-04-11, 01:37:00,VALID,915.142,VALID,0,VALID,98.9079,VALID,-0.0169808,VALID,18.1306,VALID,108,VALID,0.392188,
2000-04-11, 01:38:00,VALID,915.139,VALID,0,VALID,98.8901,VALID,0,VALID,18.1107,VALID,106,VALID,0.0598273,
2000-04-11, 01:39:00,VALID,915.144,VALID,0,VALID,98.8838,VALID,-0.0339617,VALID,18.1077,VALID,105,VALID,0.223395,
2000-04-11, 01:40:00,VALID,915.148,VALID,0,VALID,98.8863,VALID,-0.0169808,VALID,18.0983,VALID,103,VALID,0.0333059,
2000-04-11, 01:41:00,VALID,915.14,VALID,0,VALID,98.9143,VALID,-0.0339617,VALID,18.0951,VALID,64,VALID,0.172931,
2000-04-11, 01:42:00,VALID,915.136,VALID,0,VALID,98.9232,VALID,0,VALID,18.1015,VALID,22,VALID,0,
2000-04-11, 01:43:00,VALID,915.143,VALID,0,VALID,98.9804,VALID,0,VALID,18.1209,VALID,297,VALID,0,
2000-04-11, 01:44:00,VALID,915.122,VALID,0,VALID,99.0198,VALID,-0.0169808,VALID,18.15,VALID,292,VALID,0,
2000-04-11, 01:45:00,VALID,915.122,VALID,0,VALID,98.955,VALID,0,VALID,18.1269,VALID,293,VALID,0,
2000-04-11, 01:46:00,VALID,915.103,VALID,0,VALID,98.9537,VALID,-0.0169808,VALID,18.1407,VALID,246,VALID,0,
2000-04-11, 01:47:00,VALID,915.089,VALID,0,VALID,98.9041,VALID,-0.0169808,VALID,18.1241,VALID,147,VALID,0,
2000-04-11, 01:48:00,VALID,915.081,VALID,0,VALID,98.8787,VALID,-0.0169808,VALID,18.1047,VALID,136,VALID,0,
2000-04-11, 01:49:00,VALID,915.072,VALID,0,VALID,98.8711,VALID,-0.0169808,VALID,18.0946,VALID,136,VALID,0,
2000-04-11, 01:50:00,VALID,915.059,VALID,0,VALID,98.8647,VALID,-0.0339617,VALID,18.0851,VALID,136,VALID,0,
2000-04-11, 01:51:00,VALID,915.067,VALID,0,VALID,98.8965,VALID,-0.0509425,VALID,18.0881,VALID,136,VALID,0,
2000-04-11, 01:52:00,VALID,915.072,VALID,0,VALID,98.913,VALID,-0.0849042,VALID,18.0978,VALID,131,VALID,0,
2000-04-11, 01:53:00,VALID,915.039,VALID,0,VALID,98.8342,VALID,-0.0679233,VALID,18.1273,VALID,40,VALID,0,
2000-04-11, 01:54:00,VALID,915.027,VALID,0,VALID,98.6167,VALID,-0.0679233,VALID,18.1467,VALID,48,VALID,0.24261,
2000-04-11, 01:55:00,VALID,914.998,VALID,0,VALID,98.2225,VALID,-0.0509425,VALID,18.2722,VALID,91,VALID,0.251234,
2000-04-11, 01:56:00,VALID,914.984,VALID,0,VALID,98.0382,VALID,-0.0849042,VALID,18.3241,VALID,109,VALID,0,
2000-04-11, 01:57:00,VALID,914.975,VALID,0,VALID,97.733,VALID,-0.101885,VALID,18.3017,VALID,110,VALID,0,
2000-04-11, 01:58:00,VALID,914.974,VALID,0,VALID,97.41,VALID,-0.101885,VALID,18.3057,VALID,110,VALID,0,
2000-04-11, 01:59:00,VALID,914.984,VALID,0,VALID,96.8365,VALID,-0.0679233,VALID,18.2918,VALID,110,VALID,0,
2000-04-11, 02:00:00,VALID,914.977,VALID,0,VALID,96.6992,VALID,-0.0849042,VALID,18.3174,VALID,110,VALID,0,
2000-04-11, 02:01:00,VALID,914.974,VALID,0,VALID,96.7755,VALID,-0.0849042,VALID,18.3274,VALID,110,VALID,0,
2000-04-11, 02:02:00,VALID,914.968,VALID,0,VALID,96.9624,VALID,-0.0509425,VALID,18.3465,VALID,110,VALID,0,
2000-04-11, 02:03:00,VALID,914.963,VALID,0,VALID,96.9484,VALID,-0.0679233,VALID,18.3465,VALID,117,VALID,0,
2000-04-11, 02:04:00,VALID,914.944,VALID,0,VALID,96.6369,VALID,-0.0849042,VALID,18.331,VALID,120,VALID,0,
2000-04-11, 02:05:00,VALID,914.932,VALID,0,VALID,96.5542,VALID,-0.0849042,VALID,18.3013,VALID,120,VALID,0,
2000-04-11, 02:06:00,VALID,914.932,VALID,0,VALID,96.5873,VALID,-0.0169808,VALID,18.2718,VALID,120,VALID,0,
2000-04-11, 02:07:00,VALID,914.932,VALID,0,VALID,96.8975,VALID,0.0339617,VALID,18.242,VALID,120,VALID,0,
2000-04-11, 02:08:00,VALID,914.943,VALID,0,VALID,96.9268,VALID,0.0339617,VALID,18.1933,VALID,120,VALID,0,
2000-04-11, 02:09:00,VALID,914.944,VALID,0,VALID,97.0222,VALID,0.0169808,VALID,18.1837,VALID,120,VALID,0,
2000-04-11, 02:10:00,VALID,914.947,VALID,0,VALID,97.0883,VALID,0,VALID,18.171,VALID,114,VALID,0,
2000-04-11, 02:11:00,VALID,914.934,VALID,0,VALID,97.1976,VALID,0.0849042,VALID,18.1479,VALID,107,VALID,0,
2000-04-11, 02:12:00,VALID,914.932,VALID,0,VALID,97.2994,VALID,0.0509425,VALID,18.1193,VALID,100,VALID,0.560714,
2000-04-11, 02:13:00,VALID,914.924,VALID,0,VALID,97.2879,VALID,0.0339617,VALID,18.1001,VALID,100,VALID,0.578325,
2000-04-11, 02:14:00,VALID,914.901,VALID,0,VALID,97.1608,VALID,0.0169808,VALID,18.0769,VALID,108,VALID,0.460227,
2000-04-11, 02:15:00,VALID,914.893,VALID,0,VALID,96.9865,VALID,0.0679233,VALID,18.0941,VALID,116,VALID,0.475873,
2000-04-11, 02:16:00,VALID,914.892,VALID,0,VALID,96.942,VALID,0.0679233,VALID,18.1092,VALID,116,VALID,0.276816,
2000-04-11, 02:17:00,VALID,914.89,VALID,0,VALID,97.0514,VALID,0.0509425,VALID,18.1324,VALID,116,VALID,0.00506757,
2000-04-11, 02:18:00,VALID,914.894,VALID,0,VALID,96.7844,VALID,0.0169808,VALID,18.1225,VALID,116,VALID,0,
2000-04-11, 02:19:00,VALID,914.884,VALID,0,VALID,96.5326,VALID,0.0339617,VALID,18.1228,VALID,116,VALID,0,
2000-04-11, 02:20:00,VALID,914.875,VALID,0,VALID,96.3266,VALID,0.0169808,VALID,18.1421,VALID,116,VALID,0,
2000-04-11, 02:21:00,VALID,914.862,VALID,0,VALID,96.2045,VALID,0.0169808,VALID,18.1719,VALID,116,VALID,0,
2000-04-11, 02:22:00,VALID,914.829,VALID,0,VALID,96.5962,VALID,-0.101885,VALID,18.2076,VALID,114,VALID,0.112054,
2000-04-11, 02:23:00,VALID,914.828,VALID,0,VALID,96.9039,VALID,-0.0679233,VALID,18.2436,VALID,113,VALID,0.139803,
2000-04-11, 02:24:00,VALID,914.802,VALID,0,VALID,97.0044,VALID,-0.0679233,VALID,18.2272,VALID,113,VALID,0.0375845,
2000-04-11, 02:25:00,VALID,914.807,VALID,0,VALID,96.4245,VALID,-0.0849042,VALID,18.2145,VALID,70,VALID,0.320313,
2000-04-11, 02:26:00,VALID,914.778,VALID,0,VALID,96.3419,VALID,-0.101885,VALID,18.2821,VALID,62,VALID,0,
2000-04-11, 02:27:00,VALID,914.763,VALID,0,VALID,96.3851,VALID,-0.0679233,VALID,18.3174,VALID,62,VALID,0,
2000-04-11, 02:28:00,VALID,914.754,VALID,0,VALID,96.4868,VALID,-0.0509425,VALID,18.3177,VALID,64,VALID,0,
2000-04-11, 02:29:00,VALID,914.748,VALID,0,VALID,96.6025,VALID,-0.0849042,VALID,18.3218,VALID,81,VALID,0,
2000-04-11, 02:30:00,VALID,914.762,VALID,0,VALID,96.5211,VALID,-0.101885,VALID,18.2888,VALID,110,VALID,0,
2000-04-11, 02:31:00,VALID,914.762,VALID,0,VALID,96.4156,VALID,-0.101885,VALID,18.2528,VALID,110,VALID,0,
2000-04-11, 02:32:00,VALID,914.77,VALID,0,VALID,96.5211,VALID,-0.0339617,VALID,18.2272,VALID,110,VALID,0,
2000-04-11, 02:33:00,VALID,914.772,VALID,0,VALID,96.0735,VALID,-0.0679233,VALID,18.1887,VALID,110,VALID,0,
2000-04-11, 02:34:00,VALID,914.781,VALID,0,VALID,95.9324,VALID,-0.0509425,VALID,18.1917,VALID,110,VALID,0,
2000-04-11, 02:35:00,VALID,914.776,VALID,0,VALID,96.1269,VALID,-0.0339617,VALID,18.2141,VALID,110,VALID,0,
2000-04-11, 02:36:00,VALID,914.77,VALID,0,VALID,96.3711,VALID,0,VALID,18.2295,VALID,118,VALID,0,
2000-04-11, 02:37:00,VALID,914.76,VALID,0,VALID,96.5847,VALID,0.0169808,VALID,18.2164,VALID,122,VALID,0,
2000-04-11, 02:38:00,VALID,914.769,VALID,0,VALID,96.7678,VALID,0,VALID,18.1908,VALID,122,VALID,0,
2000-04-11, 02:39:00,VALID,914.764,VALID,0,VALID,96.9688,VALID,0.0169808,VALID,18.1546,VALID,122,VALID,0,
2000-04-11, 02:40:00,VALID,914.734,VALID,0,VALID,97.0883,VALID,0.0339617,VALID,18.1557,VALID,122,VALID,0,
2000-04-11, 02:41:00,VALID,914.715,VALID,0,VALID,96.7004,VALID,0,VALID,18.1068,VALID,122,VALID,0,
2000-04-11, 02:42:00,VALID,914.682,VALID,0,VALID,96.2198,VALID,0,VALID,18.0842,VALID,122,VALID,0,
2000-04-11, 02:43:00,VALID,914.678,VALID,0,VALID,96.2732,VALID,-0.0169808,VALID,18.117,VALID,122,VALID,0,
2000-04-11, 02:44:00,VALID,914.656,VALID,0,VALID,95.9922,VALID,0,VALID,18.12,VALID,122,VALID,0,
2000-04-11, 02:45:00,VALID,914.647,VALID,0,VALID,94.8197,VALID,0,VALID,18.0967,VALID,122,VALID,0,
2000-04-11, 02:46:00,VALID,914.643,VALID,0,VALID,93.9995,VALID,0,VALID,18.1714,VALID,122,VALID,0,
2000-04-11, 02:47:00,VALID,914.649,VALID,0,VALID,93.4973,VALID,0,VALID,18.2261,VALID,122,VALID,0,
2000-04-11, 02:48:00,VALID,914.646,VALID,0,VALID,92.8081,VALID,0,VALID,18.2782,VALID,122,VALID,0,
2000-04-11, 02:49:00,VALID,914.632,VALID,0,VALID,92.8068,VALID,0,VALID,18.3128,VALID,122,VALID,0,
2000-04-11, 02:50:00,VALID,914.619,VALID,0,VALID,94.1089,VALID,0,VALID,18.362,VALID,122,VALID,0,
2000-04-11, 02:51:00,VALID,914.597,VALID,0,VALID,94.5502,VALID,-0.0509425,VALID,18.3661,VALID,122,VALID,0,
2000-04-11, 02:52:00,VALID,914.586,VALID,0,VALID,94.8159,VALID,-0.101885,VALID,18.361,VALID,122,VALID,0,
2000-04-11, 02:53:00,VALID,914.576,VALID,0,VALID,94.8859,VALID,-0.118866,VALID,18.2962,VALID,122,VALID,0,
2000-04-11, 02:54:00,VALID,914.572,VALID,0,VALID,93.7414,VALID,-0.135847,VALID,18.2482,VALID,122,VALID,0,
2000-04-11, 02:55:00,VALID,914.568,VALID,0,VALID,92.7941,VALID,-0.101885,VALID,18.2355,VALID,122,VALID,0,
2000-04-11, 02:56:00,VALID,914.564,VALID,0,VALID,93.5189,VALID,-0.118866,VALID,18.2743,VALID,122,VALID,0,
2000-04-11, 02:57:00,VALID,914.55,VALID,0,VALID,93.2773,VALID,-0.101885,VALID,18.2674,VALID,122,VALID,0,
2000-04-11, 02:58:00,VALID,914.556,VALID,0,VALID,93.3828,VALID,-0.101885,VALID,18.2542,VALID,122,VALID,0,
2000-04-11, 02:59:00,VALID,914.529,VALID,0,VALID,94.4039,VALID,-0.101885,VALID,18.2351,VALID,120,VALID,0,
2000-04-11, 03:00:00,VALID,914.509,VALID,0,VALID,94.9037,VALID,-0.118866,VALID,18.1712,VALID,120,VALID,0,
2000-04-11, 03:01:00,VALID,914.518,VALID,0,VALID,95.1529,VALID,-0.118866,VALID,18.0934,VALID,120,VALID,0,
2000-04-11, 03:02:00,VALID,914.505,VALID,0,VALID,95.1682,VALID,-0.101885,VALID,18.0478,VALID,120,VALID,0,
2000-04-11, 03:03:00,VALID,914.473,VALID,0,VALID,95.1694,VALID,-0.118866,VALID,18.0159,VALID,120,VALID,0,
2000-04-11, 03:04:00,VALID,914.465,VALID,0,VALID,94.9215,VALID,-0.101885,VALID,17.9993,VALID,120,VALID,0,
2000-04-11, 03:05:00,VALID,914.455,VALID,0,VALID,95.2699,VALID,-0.101885,VALID,18.0383,VALID,120,VALID,0,
2000-04-11, 03:06:00,VALID,914.459,VALID,0,VALID,94.7816,VALID,-0.0509425,VALID,18.0118,VALID,120,VALID,0,
2000-04-11, 03:07:00,VALID,914.449,VALID,0,VALID,93.5214,VALID,-0.0169808,VALID,18.0344,VALID,120,VALID,0,
2000-04-11, 03:08:00,VALID,914.432,VALID,0,VALID,93.1794,VALID,0,VALID,18.0918,VALID,120,VALID,0,
2000-04-11, 03:09:00,VALID,914.442,VALID,0,VALID,94.0263,VALID,0,VALID,18.1463,VALID,120,VALID,0,
2000-04-11, 03:10:00,VALID,914.446,VALID,0,VALID,94.6112,VALID,0,VALID,18.1756,VALID,117,VALID,0,
2000-04-11, 03:11:00,VALID,914.44,VALID,0,VALID,94.7956,VALID,-0.0169808,VALID,18.1278,VALID,119,VALID,0.531461,
2000-04-11, 03:12:00,VALID,914.404,VALID,0,VALID,95.1084,VALID,-0.0339617,VALID,18.0466,VALID,125,VALID,0.514955,
2000-04-11, 03:13:00,VALID,914.399,VALID,0,VALID,94.8261,VALID,0,VALID,17.9751,VALID,137,VALID,0.199519,
2000-04-11, 03:14:00,VALID,914.434,VALID,0,VALID,94.5629,VALID,0,VALID,17.959,VALID,139,VALID,0,
2000-04-11, 03:15:00,VALID,914.449,VALID,0,VALID,94.3874,VALID,0,VALID,17.9689,VALID,175,VALID,0,
2000-04-11, 03:16:00,VALID,914.415,VALID,0,VALID,94.6557,VALID,0,VALID,17.9913,VALID,163,VALID,0.368877,
2000-04-11, 03:17:00,VALID,914.392,VALID,0,VALID,95.1936,VALID,-0.0169808,VALID,17.9853,VALID,144,VALID,0.247889,
2000-04-11, 03:18:00,VALID,914.44,VALID,0,VALID,95.5077,VALID,0,VALID,17.9334,VALID,148,VALID,0,
2000-04-11, 03:19:00,VALID,914.462,VALID,0,VALID,95.4352,VALID,-0.0169808,VALID,17.8916,VALID,182,VALID,0.0904948,
2000-04-11, 03:20:00,VALID,914.456,VALID,0,VALID,95.3907,VALID,0,VALID,17.8891,VALID,196,VALID,0.00560897,
2000-04-11, 03:21:00,VALID,914.461,VALID,0,VALID,95.4212,VALID,-0.0339617,VALID,17.8819,VALID,198,VALID,0,
2000-04-11, 03:22:00,VALID,914.463,VALID,0,VALID,95.715,VALID,-0.0169808,VALID,17.8849,VALID,193,VALID,0,
2000-04-11, 03:23:00,VALID,914.463,VALID,0,VALID,95.8892,VALID,0,VALID,17.8722,VALID,192,VALID,0,
2000-04-11, 03:24:00,VALID,914.485,VALID,0,VALID,95.9934,VALID,-0.0339617,VALID,17.863,VALID,184,VALID,0.0316723,
2000-04-11, 03:25:00,VALID,914.489,VALID,0,VALID,96.0837,VALID,0,VALID,17.8173,VALID,154,VALID,0.402138,
2000-04-11, 03:26:00,VALID,914.488,VALID,0,VALID,96.043,VALID,-0.0169808,VALID,17.785,VALID,154,VALID,0.0660895,
2000-04-11, 03:27:00,VALID,914.479,VALID,0,VALID,95.7264,VALID,-0.0169808,VALID,17.7788,VALID,154,VALID,0,
2000-04-11, 03:28:00,VALID,914.49,VALID,0,VALID,95.8764,VALID,0,VALID,17.8074,VALID,153,VALID,0,
2000-04-11, 03:29:00,VALID,914.478,VALID,0,VALID,96.0672,VALID,-0.0169808,VALID,17.8171,VALID,144,VALID,0,
2000-04-11, 03:30:00,VALID,914.458,VALID,0,VALID,96.1282,VALID,0,VALID,17.7982,VALID,139,VALID,0,
2000-04-11, 03:31:00,VALID,914.473,VALID,0,VALID,96.1562,VALID,-0.0169808,VALID,17.7721,VALID,139,VALID,0,
2000-04-11, 03:32:00,VALID,914.464,VALID,0,VALID,96.0608,VALID,0,VALID,17.7724,VALID,139,VALID,0,
2000-04-11, 03:33:00,VALID,914.427,VALID,0,VALID,95.8536,VALID,0,VALID,17.7687,VALID,139,VALID,0,
2000-04-11, 03:34:00,VALID,914.407,VALID,0,VALID,95.1885,VALID,-0.0169808,VALID,17.782,VALID,139,VALID,0,
2000-04-11, 03:35:00,VALID,914.431,VALID,0,VALID,94.7129,VALID,-0.0169808,VALID,17.8049,VALID,139,VALID,0,
2000-04-11, 03:36:00,VALID,914.447,VALID,0,VALID,94.7396,VALID,0,VALID,17.8335,VALID,139,VALID,0,
2000-04-11, 03:37:00,VALID,914.438,VALID,0,VALID,95.1326,VALID,0,VALID,17.8725,VALID,139,VALID,0,
2000-04-11, 03:38:00,VALID,914.42,VALID,0,VALID,95.5738,VALID,0,VALID,17.8957,VALID,139,VALID,0,
2000-04-11, 03:39:00,VALID,914.416,VALID,0,VALID,95.5662,VALID,-0.0339617,VALID,17.8531,VALID,145,VALID,0,
2000-04-11, 03:40:00,VALID,914.422,VALID,0,VALID,95.865,VALID,0,VALID,17.8111,VALID,140,VALID,0.591694,